Effective Sunday, March 17, 2024, the National Weather Service National Data Buoy Center will discontinue its Dial-A-Buoy Interactive Voice Response system. For more information, see Service Change Notice 24-06 (PDF).

Station KWHH1 - 1617433 - Kawaihae, HI Image indicating link to RSS feed of recent meteorological observations for station KWHH1


Conditions at KWHH1 as of
(9:48 am HAST)
1948 GMT on 02/26/2024:
     

Click on the graph icon in the table below to see a time series plot of the last five days of that observation.

5-day plot - Wind Direction Wind Direction (WDIR):WNW ( 300 deg true )
5-day plot - Wind Speed Wind Speed (WSPD): 5.1 kts
5-day plot - Wind Gust Wind Gust (GST): 13.0 kts
5-day plot - Atmospheric Pressure Atmospheric Pressure (PRES):30.11 in
5-day plot - Air Temperature Air Temperature (ATMP): 77.4 °F
5-day plot - Water Temperature Water Temperature (WTMP): 77.0 °F
5-day plot - Wind Speed at 10 Meters Wind Speed at 10 meters (WSPD10M): 5.8 kts
5-day plot - Wind Speed at 20 Meters Wind Speed at 20 meters (WSPD20M): 5.8 kts
5-day plot -  Wind Speed, Wind Gust and Atmospheric Pressure Combined plot of Wind Speed, Gust, and Air Pressure
NOS Water Level Observation Network Water Level
Previous observations
TIME
(HAST)
5-day plot - Wind Direction
WDIR
 
5-day plot - Wind Speed
WSPD
kts
5-day plot - Wind Gust
GST
kts
5-day plot - Wave Height
WVHT
ft
5-day plot - Dominant Wave Period
DPD
sec
5-day plot - Average Wave Period
APD
sec
5-day plot - Mean Wave Direction
MWD
 
5-day plot - Atmospheric Pressure
PRES
in
5-day plot - Pressure Tendency
PTDY
in
5-day plot - Air Temperature
ATMP
°F
5-day plot - Water Temperature
WTMP
°F
5-day plot - Dew Point
DEWP
°F
5-day plot - Salinity
SAL
psu
5-day plot - Visibility
VIS
nmi
5-day plot - Tide (above MLLW)
TIDE
ft
2024-02-26 09:42 amENE 6.0 12.0----30.11- 79.3 77.0----
2024-02-26 09:36 amSSE 11.1 20.0----30.10- 77.7 77.0----
2024-02-26 09:30 amESE 7.0 17.1----30.11- 79.0 77.0----
2024-02-26 09:24 am E 6.0 12.0----30.11- 79.9 77.0----
2024-02-26 09:18 amSSW 5.1 9.9----30.10- 77.9 77.0----
2024-02-26 09:12 am SW 5.1 14.0----30.11- 78.1 77.0----
2024-02-26 09:06 amSSE 8.0 15.0----30.10- 78.1 77.0----
2024-02-26 09:00 am S 6.0 8.9----30.11+0.03 77.5 77.0----
2024-02-26 08:54 am W 5.1 8.0----30.10- 77.4 77.0----
2024-02-26 08:48 amWNW 5.1 8.9----30.11- 77.0 77.0----
2024-02-26 08:42 amNNW 5.1 7.0----30.10- 78.1 77.0----
2024-02-26 08:36 am N 2.9 6.0----30.10- 78.3 77.0----
2024-02-26 08:30 am NE 6.0 8.9----30.10- 78.1 77.0----
2024-02-26 08:24 am E 5.1 13.0----30.08- 77.5 77.0----
2024-02-26 08:18 am SE 5.1 11.1----30.09- 76.6 77.0----
2024-02-26 08:12 am E 7.0 13.0----30.10- 76.8 77.0----
2024-02-26 08:06 am NE 9.9 15.9----30.09- 77.0 77.0----
2024-02-26 08:00 am W 7.0 15.9----30.08+0.01 75.7 77.0----
2024-02-26 07:54 am E 13.0 21.0----30.10- 75.7 77.0----
2024-02-26 07:48 am NE 8.9 14.0----30.09- 76.1 77.0----
2024-02-26 07:42 am NW 7.0 14.0----30.07- 74.8 77.0----
2024-02-26 07:36 am S 8.9 15.9----30.09- 75.0 77.0----
2024-02-26 07:30 am E 5.1 7.0----30.10- 75.2 77.0----
2024-02-26 07:24 am N 4.1 11.1----30.09- 74.5 77.0----
2024-02-26 07:18 am N 6.0 11.1----30.08- 74.5 77.0----
2024-02-26 07:12 am N 8.0 9.9----30.08- 74.1 77.0----
2024-02-26 07:06 am N 6.0 14.0----30.08- 74.1 77.0----
2024-02-26 07:00 amENE 7.0 14.0----30.09+0.03 74.7 77.0----
2024-02-26 06:54 amENE 13.0 22.0----30.07- 74.7 77.0----
2024-02-26 06:48 amENE 7.0 21.0----30.08- 73.8 77.2----
2024-02-26 06:42 am NE 8.9 17.1----30.07- 73.6 77.2----
2024-02-26 06:36 am NE 9.9 18.1----30.07- 73.8 77.2----
2024-02-26 06:30 amENE 6.0 11.1----30.08- 73.0 77.2----
2024-02-26 06:24 amENE 1.9 8.0----30.09- 73.6 77.2----
2024-02-26 06:18 amENE 1.0 8.9----30.09- 72.7 77.2----
2024-02-26 06:12 am N 4.1 5.1----30.08- 72.0 77.2----
2024-02-26 06:06 am SW 5.1 7.0----30.08- 74.7 77.2----
2024-02-26 06:00 amNNW 4.1 5.1----30.08+0.03 73.8 77.2----
2024-02-26 05:54 amWNW 2.9 5.1----30.08- 73.9 77.2----
2024-02-26 05:48 amSSW 1.9 2.9----30.08- 73.9 77.2----
2024-02-26 05:42 am- 0.0 6.0----30.08- 73.0 77.2----
2024-02-26 05:36 amENE 4.1 6.0----30.08- 71.8 77.2----
2024-02-26 05:30 amENE 4.1 6.0----30.08- 71.4 77.2----
2024-02-26 05:24 am N 2.9 6.0----30.07- 73.0 77.2----
2024-02-26 05:18 am N 2.9 5.1----30.07- 72.0 77.2----
2024-02-26 05:12 am- 0.0 4.1----30.07- 71.4 77.2----
2024-02-26 05:06 am W 1.0 2.9----30.07- 72.7 77.2----
2024-02-26 05:00 am E 1.9 2.9----30.07+0.01 72.3 77.2----
2024-02-26 04:54 am N 1.9 2.9----30.07- 73.2 77.2----
2024-02-26 04:48 am N 1.0 5.1----30.07- 71.4 77.2----
2024-02-26 04:42 am NE 2.9 6.0----30.07- 71.4 77.2----
2024-02-26 04:36 am NE 1.9 4.1----30.06- 72.3 77.2----
2024-02-26 04:30 amNNE 1.9 2.9----30.06- 72.0 77.2----
2024-02-26 04:24 amNNW 2.9 9.9----30.06- 74.1 77.2----
2024-02-26 04:18 amWNW 6.0 8.9----30.06- 74.8 77.2----
2024-02-26 04:12 amNNW 1.9 2.9----30.06- 72.9 77.2----
2024-02-26 04:06 amNNE 1.9 2.9----30.06- 72.0 77.2----
2024-02-26 04:00 am- 0.0 4.1----30.06-0.02 72.1 77.2----
2024-02-26 03:54 amNNE 1.9 4.1----30.05- 72.7 77.2----
2024-02-26 03:48 am- 0.0 2.9----30.05- 73.6 77.2----
2024-02-26 03:42 amENE 2.9 4.1----30.06- 73.4 77.2----
2024-02-26 03:36 am- 0.0 2.9----30.05- 72.9 77.2----
2024-02-26 03:30 am E 2.9 4.1----30.05- 73.2 77.2----
2024-02-26 03:24 am NE 2.9 2.9----30.05- 72.9 77.2----
2024-02-26 03:18 amENE 1.9 4.1----30.05- 75.0 77.2----
2024-02-26 03:12 amESE 2.9 5.1----30.06- 74.8 77.2----
2024-02-26 03:06 am E 5.1 5.1----30.05- 73.4 77.2----
2024-02-26 03:00 amWNW 5.1 6.0----30.05-0.02 74.8 77.2----
2024-02-26 02:54 amNNW 2.9 6.0----30.06- 74.5 77.2----
2024-02-26 02:48 amNNW 4.1 7.0----30.06- 74.8 77.2----
2024-02-26 02:42 am NW 7.0 8.9----30.06- 75.0 77.2----
2024-02-26 02:36 amNNW 5.1 7.0----30.06- 74.3 77.2----
2024-02-26 02:30 amNNW 5.1 6.0----30.06- 74.7 77.2----
2024-02-26 02:24 am NW 6.0 8.9----30.06- 75.0 77.2----
2024-02-26 02:18 amNNW 2.9 6.0----30.06- 74.3 77.2----
2024-02-26 02:12 am N 4.1 6.0----30.06- 74.1 77.2----
2024-02-26 02:06 amNNE 2.9 5.1----30.06- 74.3 77.2----
2024-02-26 02:00 amNNW 2.9 5.1----30.06-0.02 74.8 77.2----
2024-02-26 01:54 amNNE 1.9 8.0----30.06- 74.8 77.4----
2024-02-26 01:48 amWNW 7.0 11.1----30.06- 75.4 77.4----
2024-02-26 01:42 amWNW 8.0 12.0----30.06- 75.2 77.4----
2024-02-26 01:36 am S 1.0 4.1----30.06- 75.2 77.4----
2024-02-26 01:30 am W 2.9 8.9----30.07- 75.4 77.4----
2024-02-26 01:24 am W 7.0 11.1----30.07- 75.2 77.4----
2024-02-26 01:18 am W 8.0 11.1----30.07- 75.4 77.4----
2024-02-26 01:12 am NW 5.1 7.0----30.07- 74.8 77.4----
2024-02-26 01:06 am NW 1.9 7.0----30.07- 74.8 77.4----
2024-02-26 01:00 am NE 5.1 11.1----30.08+0.00 74.5 77.4----
2024-02-26 12:54 am N 5.1 11.1----30.08- 74.7 77.4----
2024-02-26 12:48 amNNE 1.9 8.0----30.08- 74.7 77.4----
2024-02-26 12:42 amNNE 5.1 8.9----30.08- 74.5 77.4----
2024-02-26 12:36 amWNW 8.0 9.9----30.08- 75.2 77.4----
2024-02-26 12:30 am W 7.0 12.0----30.08- 75.2 77.4----
2024-02-26 12:24 am NW 5.1 8.0----30.08- 75.4 77.4----
2024-02-26 12:18 amSSW 2.9 5.1----30.08- 74.7 77.4----
2024-02-26 12:12 amNNW 2.9 6.0----30.08- 75.7 77.4----
2024-02-26 12:06 amWSW 5.1 8.9----30.07- 75.6 77.4----
2024-02-26 12:00 amWSW 5.1 9.9----30.07+0.00 74.8 77.4----
2024-02-25 11:54 pm N 2.9 5.1----30.08- 75.2 77.4----
2024-02-25 11:48 pmSSW 5.1 7.0----30.08- 74.7 77.4----
2024-02-25 11:42 pm SW 4.1 7.0----30.08- 75.4 77.4----
2024-02-25 11:36 pm S 6.0 8.0----30.08- 75.4 77.4----
2024-02-25 11:30 pm E 5.1 8.9----30.08- 74.7 77.4----
2024-02-25 11:24 pm NE 1.0 5.1----30.09- 74.3 77.4----
2024-02-25 11:18 pmNNW 4.1 8.9----30.09- 74.7 77.4----
2024-02-25 11:12 pmWNW 4.1 7.0----30.08- 75.4 77.4----
2024-02-25 11:06 pm SE 6.0 13.0----30.08- 73.6 77.4----
2024-02-25 11:00 pm E 9.9 13.0----30.09+0.04 75.0 77.4----
2024-02-25 10:54 pm E 4.1 8.9----30.09- 75.0 77.4----
2024-02-25 10:48 pm E 5.1 14.0----30.08- 74.3 77.4----
2024-02-25 10:42 pmENE 8.9 15.0----30.08- 74.3 77.4----
2024-02-25 10:36 pmENE 7.0 15.0----30.08- 75.2 77.4----
2024-02-25 10:30 pmENE 6.0 12.0----30.08- 74.5 77.4----
2024-02-25 10:24 pm E 8.0 22.0----30.08- 74.3 77.4----
2024-02-25 10:18 pmENE 12.0 18.1----30.07- 74.7 77.4----
2024-02-25 10:12 pm E 9.9 17.1----30.08- 74.3 77.5----
2024-02-25 10:06 pm E 11.1 17.1----30.08- 74.3 77.5----
2024-02-25 10:00 pm E 12.0 18.1----30.08+0.05 74.1 77.5----
2024-02-25 09:54 pm E 6.0 15.0----30.08- 74.3 77.5----
2024-02-25 09:48 pmENE 6.0 18.1----30.07- 73.8 77.5----
2024-02-25 09:42 pm E 9.9 17.1----30.07- 73.4 77.5----
2024-02-25 09:36 pm E 8.9 15.9----30.08- 73.9 77.5----
2024-02-25 09:30 pm E 5.1 8.0----30.08- 73.9 77.5----
2024-02-25 09:24 pmENE 8.0 15.0----30.07- 73.6 77.5----
2024-02-25 09:18 pm E 11.1 19.0----30.07- 74.3 77.5----
2024-02-25 09:12 pm E 12.0 18.1----30.07- 73.6 77.5----
2024-02-25 09:06 pmESE 12.0 21.0----30.07- 74.5 77.5----
2024-02-25 09:00 pm E 8.9 18.1----30.06+0.06 74.1 77.5----
2024-02-25 08:54 pm E 14.0 22.9----30.06- 73.0 77.5----
2024-02-25 08:48 pm E 15.9 22.9----30.06- 73.0 77.5----
2024-02-25 08:42 pm E 13.0 22.9----30.06- 73.4 77.5----
2024-02-25 08:36 pm E 5.1 21.0----30.05- 74.3 77.5----
2024-02-25 08:30 pm E 8.0 15.9----30.05- 74.3 77.5----
2024-02-25 08:24 pmSSE 2.9 8.0----30.04- 75.4 77.5----
2024-02-25 08:18 pmESE 7.0 14.0----30.04- 74.8 77.5----
2024-02-25 08:12 pm SE 8.9 19.0----30.04- 75.9 77.5----
2024-02-25 08:06 pm E 6.0 11.1----30.04- 75.0 77.5----
2024-02-25 08:00 pmSSE 2.9 6.0----30.04+0.06 75.2 77.5----
2024-02-25 07:54 pm NE 4.1 8.0----30.04- 76.6 77.5----
2024-02-25 07:48 pm E 8.0 11.1----30.04- 76.1 77.5----
2024-02-25 07:42 pm E 2.9 4.1----30.04- 76.6 77.5----
2024-02-25 07:36 pmENE 1.9 4.1----30.03- 76.8 77.5----
2024-02-25 07:30 pm E 4.1 5.1----30.03- 76.6 77.5----
2024-02-25 07:24 pmSSE 6.0 8.0----30.03- 77.2 77.5----
2024-02-25 07:18 pm SE 7.0 8.9----30.03- 77.2 77.5----
2024-02-25 07:12 pm E 5.1 7.0----30.02- 77.4 77.7----
2024-02-25 07:06 pmESE 2.9 5.1----30.02- 77.5 77.7----
2024-02-25 07:00 pmNNE 1.9 4.1----30.02+0.05 77.9 77.7----
2024-02-25 06:54 pm E 2.9 6.0----30.02- 77.9 77.7----
2024-02-25 06:48 pmENE 5.1 15.0----30.02- 77.7 77.7----
2024-02-25 06:42 pm E 8.0 21.0----30.02- 75.9 77.7----
2024-02-25 06:36 pmESE 14.0 21.0----30.01- 76.1 77.7----
2024-02-25 06:30 pm E 2.9 8.0----30.01- 78.6 77.7----
2024-02-25 06:24 pm E 5.1 8.0----30.01- 79.3 77.7----
2024-02-25 06:18 pmESE 5.1 8.9----30.01- 78.8 77.7----
2024-02-25 06:12 pmSSW 5.1 9.9----30.01- 78.4 77.7----
2024-02-25 06:06 pm S 6.0 8.0----30.01- 78.6 77.7----
2024-02-25 06:00 pm SW 4.1 5.1----30.01+0.04 79.0 77.7----
2024-02-25 05:54 pmWSW 5.1 6.0----30.01- 79.2 77.7----
2024-02-25 05:48 pmWSW 4.1 11.1----30.01- 79.3 77.7----
2024-02-25 05:42 pm S 1.0 5.1----30.00- 80.4 77.7----
2024-02-25 05:36 pmESE 2.9 6.0----30.01- 79.5 77.7----
2024-02-25 05:30 pm SW 4.1 5.1----30.00- 79.3 77.7----
2024-02-25 05:24 pmWSW 2.9 4.1----30.00- 79.9 77.7----
2024-02-25 05:18 pmSSW 4.1 5.1----30.00- 79.3 77.7----
2024-02-25 05:12 pmSSW 5.1 6.0----29.99- 79.0 77.7----
2024-02-25 05:06 pm SW 5.1 6.0----29.99- 79.3 77.7----
2024-02-25 05:00 pm SW 6.0 8.0----29.99- 79.2 77.7----
2024-02-25 04:54 pmWSW 5.1 8.0----29.98- 79.0 77.7----
2024-02-25 04:48 pm W 7.0 8.9----29.98- 78.8-----
2024-02-25 04:42 pm W 6.0 8.9----29.98- 79.0-----
2024-02-25 04:36 pmWSW 7.0 12.0----29.98- 79.0-----
2024-02-25 04:30 pm W 8.9 11.1----29.98- 79.0 77.7----
2024-02-25 04:24 pm W 11.1 13.0----29.98- 78.8 77.7----
2024-02-25 04:18 pm W 7.0 9.9----29.98- 78.6 77.7----
2024-02-25 04:12 pmWSW 5.1 11.1----29.98- 78.8 77.7----
2024-02-25 04:06 pm SW 8.9 11.1----29.97- 78.6 77.7----
2024-02-25 04:00 pm SW 7.0 8.9----29.97-0.03 79.0 77.7----
2024-02-25 03:54 pm SW 7.0 8.0----29.97- 78.6 77.7----
2024-02-25 03:48 pm SW 8.0 9.9----29.97- 78.4 77.7----
2024-02-25 03:42 pm SW 9.9 9.9----29.97- 78.3 77.7----
2024-02-25 03:36 pm SW 8.0 9.9----29.97- 78.4 77.7----
2024-02-25 03:30 pmWSW 8.0 8.9----29.97- 78.3 77.9----
2024-02-25 03:24 pmWSW 8.9 9.9----29.97- 78.3 77.9----
2024-02-25 03:18 pmWSW 8.0 9.9----29.97- 78.1 77.9----
2024-02-25 03:12 pm W 8.0 8.9----29.97- 78.1 77.9----
2024-02-25 03:06 pm W 8.0 9.9----29.97- 78.1 77.9----
2024-02-25 03:00 pm W 8.0 11.1----29.97-0.04- 77.9----
2024-02-25 02:54 pm W 8.0 12.0----29.97-- 77.9----
2024-02-25 02:48 pm W 9.9 12.0----29.97- 78.1 77.9----
2024-02-25 02:42 pm W 9.9 11.1----29.97- 78.1 77.9----
2024-02-25 02:36 pm W 9.9 12.0----29.97- 77.9 77.9----
2024-02-25 02:30 pm W 8.9 12.0----29.98- 77.9 77.9----
2024-02-25 02:24 pmWSW 12.0 13.0----29.97- 77.9 77.7----
2024-02-25 02:18 pmWSW 12.0 13.0----29.97-- 77.7----
2024-02-25 02:12 pm W 11.1 12.0----29.97-- 77.7----
2024-02-25 02:06 pmWSW 11.1 13.0----29.97-- 77.5----
2024-02-25 02:00 pmWSW 9.9 12.0------- 77.5----
2024-02-25 01:54 pm W 9.9 11.1------- 77.5----
2024-02-25 01:48 pm W 9.9 11.1----29.98- 77.9 77.5----
2024-02-25 01:42 pmWSW 8.9 11.1----29.98- 78.1 77.5----
2024-02-25 01:36 pmWSW 8.9 9.9----29.98- 77.9 77.5----
2024-02-25 01:30 pmWSW 8.0 8.9----29.98- 77.9 77.5----
2024-02-25 01:24 pm W 8.0 9.9----29.99- 77.9 77.5----
2024-02-25 01:18 pm W 8.0 8.9----29.99- 78.1 77.5----
2024-02-25 01:12 pm W 6.0 8.0----29.99- 78.3 77.5----
2024-02-25 01:00 pm W 6.0 7.0----30.00- 78.1 77.4----
2024-02-25 12:54 pm W 5.1 7.0----30.01- 78.1 77.4----
2024-02-25 12:48 pm W 5.1 6.0----30.01- 77.9 77.4----
2024-02-25 12:42 pm W 7.0 9.9----30.01- 77.9 77.4----
2024-02-25 12:36 pm W 9.9 13.0----30.01- 77.5 77.4----
2024-02-25 12:30 pm W 12.0 14.0----30.01- 77.0 77.4----
2024-02-25 12:24 pmWSW 11.1 13.0----30.01- 77.0 77.4----
2024-02-25 12:18 pmWSW 12.0 13.0----30.01- 76.8 77.4----
2024-02-25 12:12 pmWSW 11.1 13.0----30.01- 76.6 77.4----
2024-02-25 12:06 pmWSW 12.0 14.0----30.01- 76.8 77.4----
2024-02-25 12:00 pmWSW 13.0 14.0----30.01-0.03 76.8 77.4----
2024-02-25 11:54 amWSW 11.1 13.0----30.01- 76.6 77.4----
2024-02-25 11:48 amWSW 12.0 15.0----30.01-- 77.4----
2024-02-25 11:42 amWSW 13.0 17.1----30.02-- 77.4----
2024-02-25 11:36 amWSW 14.0 17.1----30.02-- 77.4----
2024-02-25 11:30 am-------30.02-- 77.2----
2024-02-25 11:24 am-------30.02-- 77.2----
2024-02-25 11:18 amWSW 13.0 15.0----30.02- 76.6 77.2----
2024-02-25 11:12 amWSW 13.0 14.0----30.02- 76.8 77.2----
2024-02-25 11:06 amWSW 12.0 14.0----30.02- 77.2 77.2----
2024-02-25 11:00 amWSW 12.0 15.0----30.02+0.00- 77.2----
2024-02-25 10:54 am W 9.9 12.0----30.03-- 77.2----
2024-02-25 10:48 am W 9.9 13.0----30.03- 76.8 77.2----
2024-02-25 10:42 am W 11.1 15.0----30.03- 76.6 77.2----
2024-02-25 10:36 am W 13.0 17.1----30.03- 77.2 77.2----
2024-02-25 10:30 am W 14.0 15.0----30.03- 76.6 77.2----
2024-02-25 10:24 am W 13.0 15.0----30.03- 76.8 77.2----
2024-02-25 10:18 amWSW 11.1 13.0----30.04-- 77.2----
2024-02-25 10:12 am W 11.1 13.0----30.04-- 77.0----
2024-02-25 10:06 am W 11.1 13.0----30.04-- 77.2----
2024-02-25 10:00 am W 11.1 13.0------- 77.0----
2024-02-25 09:54 am W 9.9 13.0------- 77.0----